Temperature
31 31 31 31 32 32 32 31 31 30 30 30 30 30 29 29 28 27 26 26 25 24 24 23 23 22 22 21 21 20 20 19 19 19 18 18 18 18 17 17 17 17 17 17
30 31 32 31 32 32 32 32 31 31 30 30 30 29 28 28 27 27 26 25 24 23 23 22 22 22 21 21 20 20 19 19 19 18 18 18 17 17 17 17 17 17 17 17
29 30 30 30 31 32 31 32 31 30 30 30 29 29 28 28 27 26 25 25 24 23 22 22 21 21 21 20 20 20 19 19 18 18 18 18 17 17 17 17 17 16 16 16
28 28 27 30 32 32 31 31 31 30 30 30 29 27 27 27 26 25 25 24 23 22 21 21 21 20 20 20 20 19 19 18 18 18 18 17 17 17 17 16 16 16 16 16
28 27 28 30 31 31 30 29 30 30 29 29 28 27 26 25 25 24 24 23 22 22 21 20 20 20 19 19 19 18 18 18 18 18 17 17 17 17 16 16 16 16 16 16
27 26 27 28 30 30 29 28 29 29 28 27 27 26 25 24 24 23 23 22 21 21 21 20 20 19 19 18 18 18 18 18 17 17 17 17 17 16 16 16 16 16 15 15
27 27 27 28 29 29 27 26 27 27 27 26 25 25 24 24 23 22 22 21 21 20 20 19 19 19 18 18 18 18 18 17 17 17 17 16 16 16 16 16 15 15 15 15
26 26 25 27 28 27 26 26 26 26 25 24 24 23 23 23 22 21 21 21 20 20 19 19 19 18 18 18 17 17 17 17 17 16 16 16 16 16 15 15 15 15 15 15
26 25 25 26 26 26 25 25 25 24 24 23 23 22 22 22 22 21 21 20 20 19 19 18 18 18 18 17 17 17 17 17 17 16 16 16 16 15 15 15 15 15 15 14
25 25 26 25 25 25 24 25 24 24 24 23 23 22 22 22 21 20 20 20 19 19 18 18 18 18 17 17 17 17 16 16 16 16 16 16 16 15 15 15 15 15 14 14
24 24 25 24 24 23 23 23 23 23 23 23 22 22 21 21 20 19 19 19 19 18 18 17 17 17 17 17 17 16 16 16 16 16 16 16 16 15 15 15 15 15 15 14
23 23 23 23 23 23 22 22 22 22 22 22 21 21 20 20 19 19 19 18 18 18 17 17 17 17 16 16 16 16 16 16 16 16 16 16 15 15 15 15 15 15 15 14
23 22 22 22 22 22 21 22 21 21 21 21 20 20 20 19 19 18 18 18 17 17 17 17 16 16 16 16 16 15 15 15 15 15 15 15 15 15 15 15 15 15 15 14
21 21 21 21 21 21 21 21 20 20 20 20 19 19 19 18 18 18 17 17 17 17 16 16 16 16 15 15 15 15 15 15 15 15 15 15 15 15 15 15 15 15 14 14
20 20 20 21 21 21 20 20 20 20 19 19 19 18 18 18 17 17 16 16 16 16 16 15 15 15 15 15 15 15 14 14 15 15 15 15 15 15 15 15 14 14 14 14
20 20 20 20 20 20 20 20 19 19 19 18 18 18 17 17 16 16 16 16 15 15 15 15 15 15 15 14 14 14 14 14 14 14 15 15 15 15 15 14 14 14 14 14
19 20 20 20 19 19 19 19 19 19 18 18 17 17 17 16 16 16 15 15 15 15 15 15 14 14 14 14 14 14 14 14 14 14 15 15 15 14 14 14 14 14 14 14
19 19 19 19 19 19 18 18 18 18 17 17 17 16 16 16 16 15 15 15 14 14 14 14 14 14 14 14 14 14 14 14 14 14 14 14 14 14 14 14 14 14 14 13
18 18 18 18 18 18 18 18 17 17 16 16 16 16 15 15 15 15 14 14 14 14 14 14 14 14 13 13 13 13 13 13 14 14 14 14 14 14 14 14 14 14 13 13
17 17 17 17 17 17 17 17 16 16 16 15 15 15 15 14 14 14 14 14 14 14 13 13 13 13 13 13 13 13 13 13 14 14 14 14 14 14 14 14 14 13 13 13
16 16 16 16 16 16 16 15 15 15 15 15 15 14 14 14 14 14 14 14 13 13 13 13 13 13 13 13 13 13 13 13 13 13 13 14 14 13 13 13 13 13 13 13
15 15 15 15 15 15 15 15 14 14 14 14 14 14 14 14 14 14 13 13 13 13 13 13 13 13 13 13 13 13 13 13 13 13 13 13 13 13 13 13 13 13 13 12
14 14 14 14 14 14 14 14 14 14 14 13 13 13 13 13 13 13 13 13 13 13 13 13 13 13 13 13 12 12 12 13 13 12 13 13 13 12 12 12 12 12 12 12
13 13 13 13 13 13 13 13 13 13 13 13 13 13 13 13 13 13 13 13 13 13 12 12 12 12 12 12 12 12 12 12 12 12 12 12 12 12 12 12 12 12 12 11
12 12 13 13 13 13 13 13 13 13 13 13 13 13 13 13 12 12 12 12 12 12 12 12 12 12 12 12 12 12 12 12 12 12 12 12 12 12 11 11 11 11 11 11
12 12 12 12 12 13 13 13 13 13 13 13 12 12 12 12 12 12 12 12 12 12 12 12 12 12 11 11 11 11 11 11 11 11 11 11 11 11 11 11 11 10 10 10
12 12 12 12 12 12 12 12 12 12 12 12 12 12 12 11 12 12 12 11 11 12 11 11 11 11 11 11 11 11 11 11 11 11 11 11 10 10 10 10 10 10 10 10
Wind_Speed
13 12 12 12 11 12 12 11 10 7 4 4 4 7 8 8 9 9 8 8 7 6 6 6 6 6 6 5 5 5 5 4 4 3 2 2 2 2 3 3 3 2 2 2
14 14 14 14 13 12 12 10 9 7 4 2 3 6 7 7 7 7 7 7 7 7 6 5 5 4 5 5 4 5 4 4 3 3 2 2 3 3 3 3 3 3 2 2
13 12 14 14 12 11 10 10 8 5 2 4 4 4 6 6 6 6 6 6 7 6 5 5 4 4 3 3 4 4 4 4 3 3 3 3 3 2 3 3 2 2 3 2
12 13 16 11 8 7 7 6 4 1 2 3 6 6 5 5 6 6 6 6 6 6 5 4 4 3 2 3 3 4 4 3 3 3 3 3 3 3 3 2 2 3 3 3
10 13 14 10 6 5 5 5 2 1 2 3 5 6 5 5 4 5 6 6 5 4 4 4 3 3 3 2 2 3 3 3 3 3 3 3 3 3 3 3 3 3 3 3
10 12 12 7 4 4 5 4 2 4 4 3 3 2 3 5 4 6 7 6 4 3 4 4 4 3 2 2 2 2 2 2 2 2 3 4 4 3 3 3 4 4 3 3
13 13 8 5 5 4 5 1 4 4 3 2 3 2 3 4 5 5 6 6 4 4 4 3 3 3 2 1 1 1 1 2 2 3 4 4 3 2 3 4 4 4 4 3
11 13 6 6 4 2 2 2 4 5 4 5 6 4 2 4 5 4 5 5 4 3 3 3 3 3 2 1 1 1 2 2 3 3 4 3 2 3 4 5 5 4 4 4
3 2 1 3 3 3 2 2 4 3 3 5 5 2 1 3 4 3 3 3 2 2 2 2 2 2 2 1 0 1 2 3 3 4 4 4 4 4 4 4 4 4 4 4
3 3 3 3 4 4 4 3 3 2 2 3 3 3 2 2 3 2 2 1 0 1 1 0 1 1 1 1 0 1 2 3 3 4 4 4 4 5 5 5 5 5 5 5
4 4 4 3 3 3 3 3 2 3 2 2 1 1 2 1 2 1 1 1 0 0 1 1 1 1 1 0 0 2 3 3 4 4 4 4 4 4 5 4 5 5 4 3
4 2 2 3 2 3 3 2 2 2 3 2 1 1 1 1 0 0 0 1 1 1 1 1 1 1 1 0 1 2 3 4 4 3 3 3 4 3 2 4 5 5 5 4
4 3 3 3 2 2 2 2 2 2 2 2 1 1 1 1 1 1 1 1 2 2 2 1 1 2 2 2 2 3 4 4 4 4 3 3 3 4 4 3 3 5 6 6
3 4 5 4 3 3 3 3 3 2 2 2 2 2 2 1 1 1 1 2 2 2 2 2 2 3 2 2 3 4 5 5 4 3 3 3 4 4 5 5 4 3 4 8
4 4 5 5 3 3 3 3 3 2 2 2 2 3 1 1 0 1 1 2 2 2 3 2 2 2 2 3 4 4 4 4 3 3 4 4 4 4 4 4 4 4 3 3
7 6 5 4 4 5 4 4 4 3 2 3 2 2 1 1 1 1 2 2 2 3 3 2 3 2 2 3 4 4 4 5 5 5 5 4 4 4 3 3 4 3 3 3
7 6 4 4 4 5 4 4 3 2 2 2 3 3 2 2 2 2 2 3 3 3 3 2 3 2 3 3 4 5 4 4 6 6 5 4 4 4 4 3 3 2 2 3
5 4 4 5 5 4 3 3 3 2 2 3 3 2 3 3 3 3 3 3 3 4 4 3 2 2 3 3 4 4 5 5 5 5 4 3 3 4 4 4 3 3 2 2
4 4 4 4 5 4 3 2 3 2 2 2 2 2 3 4 3 3 3 4 5 5 4 3 4 4 4 3 4 4 5 5 5 5 4 4 4 4 4 3 3 3 2 1
4 4 4 5 5 5 4 3 3 2 2 3 3 3 4 4 4 4 5 5 5 4 3 2 3 4 4 4 5 5 6 6 6 5 4 4 3 3 3 3 3 3 2 1
4 4 4 5 5 5 5 5 4 4 4 3 3 4 4 5 5 5 6 6 3 3 4 4 4 4 4 4 6 6 6 6 5 4 4 4 3 3 3 3 3 2 2 2
4 4 4 5 5 5 4 4 4 4 5 4 5 5 5 5 6 5 5 4 3 2 3 3 3 2 4 6 5 5 5 5 4 4 3 4 3 3 3 3 3 3 2 2
5 5 6 6 5 5 5 5 4 5 5 5 5 5 5 5 5 5 4 3 2 2 3 3 2 2 3 4 4 5 5 4 3 4 3 3 3 3 3 3 3 3 2 2
6 5 5 5 5 5 5 6 5 5 5 5 4 4 5 5 4 4 3 2 1 2 3 1 1 2 3 4 4 5 4 4 3 3 3 3 3 4 3 3 3 3 2 2
6 6 6 6 6 5 5 5 5 5 5 4 4 4 4 3 4 4 3 3 2 3 3 2 3 3 3 4 5 4 3 3 3 3 3 3 3 3 3 3 2 2 2 2
5 5 4 5 5 5 4 4 3 3 3 3 3 4 4 3 3 2 2 3 3 3 3 3 2 3 4 4 4 3 2 2 2 3 3 3 3 3 3 2 3 2 2 1
5 4 3 4 4 4 5 4 3 3 2 3 3 3 4 3 3 4 4 3 3 3 3 2 2 3 3 3 3 2 2 2 2 2 2 2 2 3 3 2 2 2 2 2
Wind_Direction
271 272 266 260 252 252 254 261 268 268 246 213 167 120 120 129 133 133 135 133 129 123 111 116 125 133 137 142 143 144 144 151 158 166 170 183 189 197 200 203 214 206 224 236
272 271 271 270 265 258 259 262 260 261 265 142 113 105 121 128 129 135 135 134 127 121 119 116 111 122 130 134 135 137 148 158 160 165 180 194 209 218 218 220 226 218 225 241
272 272 274 264 264 265 268 271 270 261 201 141 137 133 142 139 136 138 136 131 126 125 121 119 116 115 115 129 139 145 154 162 172 184 192 199 218 214 226 233 230 223 230 230
264 270 264 267 276 274 269 278 295 232 174 155 126 110 102 117 127 131 128 122 126 131 129 135 132 122 113 124 138 152 161 172 179 191 201 207 213 216 221 225 228 229 232 231
261 263 263 268 285 298 288 276 297 189 128 117 110 113 101 83 100 116 113 109 108 118 124 124 124 118 127 137 144 156 178 196 194 193 208 217 220 221 216 218 229 232 228 230
249 259 264 285 310 322 278 264 48 97 99 109 128 184 126 96 82 100 107 106 105 114 108 104 107 128 145 150 158 182 199 207 205 205 223 226 225 225 226 226 233 237 234 234
250 254 257 296 302 272 261 344 46 78 90 75 63 63 87 103 95 95 96 96 94 103 116 121 134 146 153 148 174 211 216 217 211 209 228 225 223 222 222 228 237 233 228 232
248 253 261 343 330 338 43 33 48 62 65 77 79 83 91 99 98 102 101 97 94 97 113 128 140 148 148 159 197 232 242 231 225 216 231 232 209 229 230 228 230 229 228 233
272 273 52 22 13 13 20 65 77 93 106 104 110 119 131 103 101 99 102 92 83 106 118 129 144 151 170 171 256 268 273 255 242 233 219 216 219 231 234 230 228 229 228 234
293 289 325 21 34 15 354 30 56 88 125 138 146 157 135 97 88 84 88 99 50 64 71 95 127 155 175 163 199 274 273 272 254 238 220 207 211 216 225 236 235 233 232 236
264 289 310 356 13 347 357 4 18 22 13 46 71 103 102 106 107 118 101 65 8 347 328 324 47 10 339 4 248 271 270 275 269 250 232 212 217 228 229 234 234 235 239 236
267 281 295 311 314 2 3 327 342 13 340 349 22 51 50 81 63 251 124 4 315 302 304 305 312 298 334 332 255 273 274 276 275 271 248 219 216 236 248 235 226 214 215 217
330 323 309 307 322 328 291 307 329 318 306 316 334 320 325 345 343 347 334 317 298 298 307 302 284 283 277 274 250 255 267 273 274 272 269 256 235 231 239 254 242 230 231 221
329 315 304 294 284 296 314 323 322 309 323 331 311 286 273 274 276 279 302 303 298 299 292 285 283 288 281 276 263 255 260 269 271 272 272 269 259 246 240 237 238 242 231 220
280 274 270 276 292 292 290 299 292 283 300 302 293 288 271 233 269 314 312 302 304 300 302 297 294 298 302 290 279 277 274 269 269 274 274 269 266 257 251 239 233 226 217 213
282 274 270 271 281 283 287 285 279 276 283 298 302 300 307 291 262 253 277 287 282 285 291 288 288 297 305 297 294 285 276 273 268 270 270 269 267 269 263 254 250 230 219 208
277 278 272 271 283 286 286 283 286 298 312 309 310 322 300 265 259 260 268 273 275 281 278 269 273 283 288 287 283 280 280 276 268 264 261 265 268 272 268 260 262 254 236 195
280 288 293 291 292 294 295 299 305 315 318 315 318 312 305 291 283 290 294 299 294 285 278 270 271 272 265 263 264 267 275 275 272 268 265 269 273 271 269 267 267 257 243 189
312 310 312 318 320 306 299 303 301 308 315 311 312 318 317 309 303 300 297 292 283 279 275 268 255 264 267 265 271 262 266 270 271 278 281 268 259 258 265 264 262 258 243 196
338 332 328 324 319 323 332 329 321 312 311 304 298 279 276 286 293 291 291 282 278 284 285 285 266 268 268 270 272 266 264 265 264 267 274 277 269 266 263 261 255 252 246 218
352 340 327 322 326 328 326 327 328 320 312 300 298 286 281 285 286 287 284 284 286 293 284 266 265 275 274 277 262 263 264 266 265 264 270 277 273 273 273 269 263 253 245 240
348 339 332 328 320 315 312 311 307 304 304 302 296 286 282 278 277 273 275 280 286 301 287 281 275 285 280 272 268 270 270 269 273 274 272 279 288 285 276 271 265 260 254 248
340 335 335 329 318 306 304 302 296 293 291 286 283 284 288 291 293 293 296 304 302 298 290 294 297 294 282 271 271 273 278 275 274 280 282 288 288 287 280 276 274 269 264 265
325 327 324 319 313 302 296 293 289 287 286 284 280 282 284 284 284 283 294 307 288 284 293 288 242 264 271 275 277 278 284 285 274 275 282 277 271 277 278 271 269 277 283 280
303 301 303 304 300 292 286 285 284 286 293 297 293 288 281 278 283 298 311 314 295 273 274 255 230 243 257 274 277 279 288 296 296 290 275 276 279 283 288 280 267 270 280 284
304 307 309 302 304 301 301 294 290 293 294 303 320 324 325 324 320 312 301 296 294 286 280 274 244 233 250 262 266 270 270 272 273 273 286 293 296 296 299 313 329 340 338 346
289 288 285 295 301 299 294 292 294 300 314 323 317 320 329 337 338 338 331 318 308 302 291 283 280 279 275 269 271 279 281 288 291 300 308 312 320 335 343 349 353 358 4 15
Height
1453 1449 1449 1449 1448 1447 1450 1452 1459 1459 1459 1455 1454 1456 1461 1466 1470 1473 1476 1479 1482 1485 1487 1489 1492 1495 1497 1499 1501 1502 1503 1504 1505 1506 1507 1508 1508 1509 1509 1509 1510 1509 1510 1510
1457 1448 1446 1447 1443 1443 1444 1445 1449 1452 1454 1451 1454 1459 1464 1467 1471 1474 1477 1480 1483 1485 1487 1490 1492 1494 1496 1497 1499 1501 1502 1503 1504 1504 1505 1506 1506 1506 1507 1507 1507 1507 1507 1507
1464 1452 1452 1456 1444 1443 1444 1442 1446 1454 1454 1452 1457 1460 1464 1467 1471 1474 1478 1480 1483 1485 1488 1490 1491 1493 1494 1496 1497 1499 1500 1501 1502 1502 1503 1503 1504 1504 1504 1504 1504 1504 1504 1505
1462 1464 1476 1451 1434 1436 1441 1442 1443 1446 1450 1453 1458 1462 1465 1468 1471 1474 1477 1480 1482 1484 1487 1489 1490 1491 1493 1494 1496 1497 1498 1499 1499 1500 1501 1501 1501 1501 1502 1502 1502 1502 1502 1502
1464 1467 1460 1445 1439 1440 1446 1448 1446 1448 1451 1455 1458 1462 1467 1470 1472 1475 1477 1479 1482 1483 1485 1487 1489 1490 1491 1493 1494 1494 1495 1496 1497 1497 1498 1498 1498 1498 1499 1499 1499 1499 1499 1499
1462 1471 1471 1455 1442 1442 1446 1454 1449 1450 1454 1456 1459 1465 1469 1472 1474 1475 1478 1480 1481 1482 1484 1486 1487 1489 1490 1491 1491 1492 1493 1493 1494 1494 1495 1495 1495 1495 1496 1496 1496 1496 1496 1496
1461 1464 1457 1448 1445 1445 1460 1463 1454 1454 1457 1460 1462 1467 1471 1472 1474 1476 1478 1480 1481 1482 1483 1485 1486 1487 1488 1489 1489 1490 1490 1491 1491 1491 1492 1492 1492 1492 1493 1493 1493 1493 1493 1493
1458 1464 1466 1450 1449 1452 1458 1457 1456 1458 1461 1463 1465 1468 1472 1473 1474 1476 1478 1479 1481 1482 1482 1483 1484 1485 1486 1486 1487 1487 1488 1488 1488 1488 1489 1489 1489 1489 1490 1490 1490 1490 1490 1490
1455 1460 1456 1454 1454 1455 1457 1457 1459 1461 1464 1465 1468 1470 1472 1474 1475 1477 1478 1479 1481 1482 1482 1482 1483 1484 1484 1485 1485 1485 1485 1485 1485 1485 1485 1485 1486 1486 1486 1486 1487 1486 1487 1487
1455 1454 1454 1455 1456 1458 1459 1460 1461 1463 1464 1466 1468 1470 1471 1473 1474 1477 1478 1479 1480 1481 1481 1481 1481 1482 1482 1483 1483 1482 1482 1482 1481 1481 1481 1482 1482 1482 1482 1482 1482 1483 1483 1483
1456 1456 1456 1457 1459 1460 1461 1463 1463 1464 1465 1466 1468 1470 1471 1472 1474 1476 1477 1478 1479 1479 1480 1480 1480 1480 1480 1480 1480 1479 1479 1479 1478 1478 1478 1478 1479 1479 1479 1479 1479 1479 1479 1480
1457 1458 1459 1460 1461 1461 1463 1464 1464 1465 1466 1467 1468 1470 1471 1472 1473 1474 1475 1476 1477 1477 1477 1478 1478 1477 1477 1477 1477 1476 1476 1476 1476 1475 1475 1475 1475 1475 1476 1476 1476 1476 1476 1477
1457 1458 1459 1460 1460 1462 1462 1463 1464 1465 1466 1467 1468 1469 1470 1471 1472 1473 1473 1474 1474 1475 1475 1475 1475 1475 1474 1474 1474 1474 1473 1473 1473 1473 1472 1472 1472 1472 1472 1472 1472 1473 1473 1473
1459 1460 1461 1461 1461 1462 1462 1463 1464 1464 1465 1466 1468 1469 1469 1470 1470 1471 1472 1472 1472 1472 1472 1472 1471 1471 1471 1471 1471 1471 1470 1470 1469 1469 1469 1469 1469 1469 1469 1468 1468 1468 1469 1469
1460 1461 1461 1460 1460 1461 1462 1462 1463 1463 1464 1465 1466 1467 1468 1468 1468 1469 1469 1470 1470 1469 1469 1469 1468 1468 1468 1468 1468 1467 1467 1467 1466 1466 1466 1466 1466 1466 1465 1465 1465 1464 1464 1465
1460 1460 1459 1459 1460 1461 1461 1461 1462 1463 1464 1464 1465 1466 1466 1466 1466 1467 1467 1467 1467 1466 1466 1466 1466 1465 1465 1465 1465 1464 1464 1463 1463 1463 1463 1463 1463 1462 1462 1462 1462 1461 1461 1461
1459 1458 1458 1459 1459 1460 1461 1460 1461 1461 1462 1463 1464 1464 1464 1465 1464 1464 1465 1465 1464 1464 1463 1463 1462 1462 1462 1461 1461 1461 1461 1460 1460 1460 1460 1459 1459 1459 1459 1459 1459 1459 1458 1458
1457 1458 1458 1458 1459 1459 1459 1459 1460 1461 1462 1462 1462 1462 1463 1462 1462 1462 1462 1462 1462 1461 1460 1460 1459 1459 1458 1458 1458 1458 1458 1457 1457 1457 1457 1456 1456 1456 1456 1456 1455 1455 1455 1456
1457 1457 1457 1458 1458 1458 1458 1458 1459 1460 1460 1460 1460 1460 1461 1461 1460 1460 1459 1459 1458 1458 1457 1456 1456 1455 1455 1454 1454 1454 1454 1454 1454 1454 1454 1453 1452 1452 1452 1452 1452 1452 1453 1452
1457 1457 1457 1457 1457 1456 1456 1457 1457 1458 1458 1458 1459 1459 1459 1458 1458 1457 1456 1456 1455 1454 1454 1453 1452 1451 1451 1451 1450 1451 1451 1450 1450 1450 1450 1450 1449 1449 1449 1449 1449 1449 1449 1449
1457 1457 1457 1457 1456 1456 1456 1456 1456 1456 1456 1457 1457 1457 1456 1455 1455 1454 1454 1453 1452 1451 1450 1449 1449 1448 1447 1447 1447 1447 1447 1447 1447 1447 1447 1446 1446 1446 1446 1446 1446 1446 1446 1446
1457 1456 1456 1456 1455 1455 1455 1454 1454 1454 1454 1454 1454 1454 1453 1452 1451 1451 1450 1450 1448 1447 1447 1446 1445 1444 1444 1444 1444 1443 1443 1443 1443 1443 1443 1443 1443 1443 1443 1443 1443 1443 1443 1443
1457 1456 1455 1454 1454 1453 1453 1452 1452 1452 1451 1451 1451 1451 1450 1449 1448 1447 1446 1446 1445 1444 1443 1443 1442 1441 1440 1440 1440 1440 1440 1440 1440 1440 1440 1439 1439 1439 1440 1440 1440 1440 1440 1440
1456 1455 1454 1453 1452 1451 1450 1450 1450 1449 1448 1448 1447 1447 1446 1446 1445 1444 1443 1442 1441 1441 1441 1440 1439 1438 1437 1437 1437 1437 1437 1437 1436 1436 1437 1436 1436 1436 1436 1436 1436 1436 1437 1437
1455 1454 1452 1451 1450 1449 1448 1447 1446 1446 1445 1445 1444 1443 1443 1442 1441 1440 1440 1439 1438 1438 1437 1437 1436 1435 1435 1434 1434 1434 1434 1434 1434 1434 1434 1434 1433 1433 1433 1433 1433 1433 1433 1433
1453 1452 1450 1449 1448 1447 1446 1445 1444 1443 1443 1442 1441 1441 1440 1439 1438 1437 1436 1436 1436 1435 1435 1434 1433 1433 1432 1432 1432 1431 1431 1431 1431 1431 1431 1431 1431 1431 1431 1430 1430 1430 1430 1430
1450 1449 1448 1447 1446 1445 1444 1443 1442 1441 1441 1440 1439 1439 1438 1437 1436 1435 1434 1433 1433 1433 1432 1432 1431 1430 1430 1430 1430 1430 1430 1430 1429 1429 1428 1428 1428 1428 1427 1427 1427 1427 1427 1427